This demonstration page uses our WeatherBlox Daily Observations layout. Learn more.

Left ArrowRight Arrow

34.74481, -87.66753

Hourly Observations for June 30, 2017

Temp ( °F °C ) Dew Point ( °F °C ) Humidity (%) Winds ( mph kmh ) Pressure ( in mb ) Visibility ( mi km ) Precip ( " mm )
12:22 am 00:22 Cloudy 74 23.3 70 21.1 88 88 S 5 7 30.00 1016 10 16 0.00 0.00
12:50 am 00:50 Cloudy 73 23 70 21 89 89 S 5 7 30.00 1016 10 16 0.00 0.00
12:53 am 00:53 Cloudy 74 23.3 70 21.1 88 88 S 3 6 30.00 1016 10 16 0.00 0.00
1:43 am 01:43 Cloudy 73 22.8 70 21.1 90 90 S 5 7 29.97 1015 10 16 0.00 0.00
1:50 am 01:50 Cloudy 73 23 70 21 89 89 S 5 7 29.97 1015 10 16 0.00 0.00
1:53 am 01:53 Cloudy 73 22.8 70 21.1 90 90 S 3 6 29.99 1016 10 16 0.00 0.00
2:53 am 02:53 Mostly Cloudy 73 22.8 70 21.1 90 90 SSE 5 7 29.98 1015 10 16 0.01 0.25
3:51 am 03:51 Cloudy 73 23 70 21 89 89 SE 5 7 29.97 1015 10 16 0.00 0.00
3:53 am 03:53 Cloudy 73 22.8 70 21.1 90 90 SE 5 7 29.96 1015 10 16 0.00 0.00
4:53 am 04:53 Cloudy 73 22.8 70 21.1 90 90 Calm 29.98 1015 10 16 0.00 0.00
5:06 am 05:06 Cloudy 73 22.8 70 21.1 90 90 S 3 6 29.97 1015 10 16 0.00 0.00
5:20 am 05:20 Cloudy 73 22.8 70 21.1 90 90 Calm 29.97 1015 10 16 0.00 0.00
5:53 am 05:53 Cloudy 73 22.8 70 21.1 90 90 SSE 3 6 30.00 1016 10 16 0.00 0.00
6:53 am 06:53 Cloudy 74 23.3 71 21.7 91 91 Calm 30.01 1016 10 16 0.00 0.00
7:44 am 07:44 Cloudy 75 23.9 71 21.7 88 88 SSW 3 6 30.00 1016 10 16 0.01 0.25
7:53 am 07:53 Cloudy 75 23.9 71 21.7 88 88 SSW 3 6 30.01 1016 10 16 0.01 0.25
8:14 am 08:14 Mostly Cloudy 76 24.4 71 21.7 85 85 SSW 5 7 30.00 1016 10 16 0.00 0.00
8:26 am 08:26 Mostly Cloudy 77 25 72 22.2 85 85 SW 7 11 30.00 1016 10 16 0.00 0.00
8:53 am 08:53 Cloudy 77 25 72 22.2 85 85 WSW 6 9 30.03 1017 10 16 0.00 0.00
9:32 am 09:32 Cloudy 77 25 72 22.2 85 85 SSW 7 11 30.00 1016 10 16 0.00 0.00
9:53 am 09:53 Cloudy 78 25.6 72 22.2 82 82 SSW 5 7 30.02 1017 10 16 0.00 0.00
10:33 am 10:33 Cloudy with Light Rain 77 25 73 22.8 88 88 WSW 7 11 30.03 1017 10 16 0.01 0.25
10:42 am 10:42 Cloudy 78 25.6 73 22.8 85 85 SW 8 13 30.03 1017 10 16 0.01 0.25
10:53 am 10:53 Cloudy 78 25.6 73 22.8 85 85 WSW 6 9 30.03 1017 10 16 0.01 0.25
11:28 am 11:28 Mostly Cloudy with Light Rain 81 27.2 72 22.2 74 74 WSW 7 11 30.03 1017 10 16 0.00 0.03
11:53 am 11:53 Cloudy 80 26.7 74 23.3 82 82 W 3 6 30.02 1017 10 16 0.04 1.02
12:53 pm 12:53 Partly Cloudy 84 28.9 74 23.3 72 72 WSW 9 15 30.00 1016 10 16 0.00 0.03
1:53 pm 13:53 Mostly Cloudy with Light Rain 87 30.6 73 22.8 63 63 W 8 13 29.98 1015 10 16 0.00 0.03
2:53 pm 14:53 Partly Cloudy 90 32.2 72 22.2 56 56 SW 10 17 29.96 1014 10 16 0.00 0.03
3:53 pm 15:53 Partly Cloudy 88 31.1 72 22.2 59 59 WSW 12 19 29.95 1014 10 16 0.00 0.00
4:53 pm 16:53 Mostly Sunny 90 32.2 72 22.2 56 56 SW 12 19 29.91 1013 10 16 0.00 0.00
5:53 pm 17:53 Sunny 87 30.6 72 22.2 61 61 SSW 14 22 29.88 1012 10 16 0.00 0.00
6:53 pm 18:53 Sunny 87 30.6 71 21.7 59 59 WSW 9 15 29.94 1014 10 16 0.00 0.00
7:53 pm 19:53 Mostly Sunny 83 28.3 72 22.2 70 70 SW 3 6 29.95 1014 10 16 0.00 0.00
8:53 pm 20:53 Clear 81 27.2 72 22.2 74 74 SSW 5 7 29.97 1015 10 16 0.00 0.00
9:53 pm 21:53 Mostly Clear 80 26.7 74 23.3 82 82 SSW 6 9 29.98 1015 10 16 0.00 0.00
10:53 pm 22:53 Mostly Cloudy 80 26.7 74 23.3 82 82 SSW 7 11 30.00 1016 10 16 0.00 0.00
11:53 pm 23:53 Mostly Clear 78 25.6 74 23.3 87 87 S 7 11 30.02 1017 10 16 0.00 0.00

Powered by AerisWeather